This is the latest recevied weather packets stored in our database for station/object KB9HUO. If no packets are shown the sender has not sent any weather packets the latest 1 day(s).
| Time | Temp. | Humidity | Pressure | Rain* | Wind** | Luminosity | Snow |
|---|---|---|---|---|---|---|---|
| 1778038379 | 9.44° C | 98% | 1009 hPa | 14.99 mm | - | 0 W/m² | - |
| 1778038076 | 10° C | 98% | 1010.1 hPa | 10.67 mm | - | 0 W/m² | - |
| 1778037773 | 10° C | 98% | 1009.8 hPa | 4.32 mm | - | 0 W/m² | - |
| 1778037469 | 10° C | 98% | 1009.3 hPa | 3.05 mm | - | 0 W/m² | - |
| 1778037167 | 10° C | 98% | 1009.3 hPa | 3.05 mm | - | 0 W/m² | - |
| 1778036865 | 10° C | 98% | 1008.9 hPa | 7.87 mm | - | 0 W/m² | - |
| 1778036259 | 10° C | 98% | 1009 hPa | 3.05 mm | - | 0 W/m² | - |
| 1778035955 | 10.56° C | 98% | 1008.4 hPa | 3.05 mm | - | 0 W/m² | - |
| 1778035652 | 10.56° C | 98% | 1008.4 hPa | 3.05 mm | - | 0 W/m² | - |
| 1778035349 | 10.56° C | 98% | 1008.6 hPa | 3.05 mm | - | 0 W/m² | - |
| 1778035045 | 10.56° C | 98% | 1008.5 hPa | 1.78 mm | - | 0 W/m² | - |
| 1778034743 | 10.56° C | 98% | 1008.5 hPa | 4.32 mm | - | 0 W/m² | - |
| 1778034439 | 10.56° C | 98% | 1008.6 hPa | 7.87 mm | - | 0 W/m² | - |
| 1778034137 | 10.56° C | 97% | 1008.4 hPa | 6.1 mm | - | 0 W/m² | - |
| 1778033835 | 10.56° C | 97% | 1008.3 hPa | 4.32 mm | - | 0 W/m² | - |
| 1778033532 | 10.56° C | 97% | 1008.1 hPa | 4.83 mm | - | 0 W/m² | - |
| 1778032321 | 10.56° C | 97% | 1008.3 hPa | 1.27 mm | - | 0 W/m² | - |
| 1778032018 | 10.56° C | 97% | 1008.2 hPa | 1.27 mm | - | 0 W/m² | - |
| 1778031714 | 10.56° C | 97% | 1008.2 hPa | 1.78 mm | - | 0 W/m² | - |
| 1778031412 | 10.56° C | 97% | 1008.1 hPa | 3.05 mm | - | 0 W/m² | - |
| 1778031109 | 10.56° C | 97% | 1008 hPa | 3.05 mm | - | 0 W/m² | - |
| 1778030805 | 11.11° C | 97% | 1008.2 hPa | 1.78 mm | - | 0 W/m² | - |
| 1778030502 | 11.11° C | 97% | 1008.5 hPa | 1.27 mm | - | 0 W/m² | - |
| 1778029895 | 11.11° C | 97% | 1008.1 hPa | 6.6 mm | - | 0 W/m² | - |
| 1778029594 | 11.11° C | 97% | 1008.2 hPa | 15.49 mm | - | 0 W/m² | - |
* Rain latest hour (hover to see other rain measurements)
** Current wind speed in m/s (hover to see current wind gust speed)